Skip Page Navigation
NASA JPL Caltech
NASA Logo - Jet Propulsion Laboratory + View the NASA Portal
+ Center for Near-Earth Object Studies
JPL Home Earth Solar System Stars & Galaxies Technology
JPL Solar System Dynamics
BODIES ORBITS EPHEMERIDES TOOLS PHYSICAL DATA DISCOVERY FAQ SITE MAP
IMPORTANT: The SSD Announcement email list is now available. Major changes are coming in the near future, including possible hostname and/or URL changes. To be notified of such changes, subscribe to this email list.

Please visit this page for more details.


JPL Small-Body Database Browser
Search: [ help ]  
413499 (2005 QR35)
Classification: Main-belt Asteroid          SPK-ID: 2413499
Ephemeris | Orbit Diagram | Orbital Elements | Mission Design | Physical Parameters | Discovery Circumstances ]

[ show orbit diagram ]
Orbital Elements at Epoch 2458600.5 (2019-Apr-27.0) TDB
Reference: JPL 11 (heliocentric ecliptic J2000)
 Element Value Uncertainty (1-sigma)   Units 
e .1047908086285472 9.0296e-08  
a 2.640685044250207 3.113e-08 au
q 2.363965523129917 2.3973e-07 au
i 5.160791398163551 7.8059e-06 deg
node 132.8393121902606 0.0001131 deg
peri 204.9276071162679 0.00012163 deg
M 74.23576682087501 4.6839e-05 deg
tp 2458277.290562248784
(2018-Jun-07.79056225)
0.00020298 TDB
period 1567.376516379147
4.29
2.7716e-05
7.588e-08
d
yr
n .2296831656197383 4.0615e-09 deg/d
Q 2.917404565370497 3.4392e-08 au
  Orbit Determination Parameters
   # obs. used (total)      91  
   data-arc span      4773 days (13.07 yr)  
   first obs. used      2005-08-25  
   last obs. used      2018-09-19  
   planetary ephem.      DE431  
   SB-pert. ephem.      SB431-N16  
   condition code      0  
   norm. resid. RMS      .62072  
   source      ORB  
   producer      Otto Matic  
   solution date      2018-Oct-03 13:10:31  

Additional Information
 Earth MOID = 1.35462 au 
 Jupiter MOID = 2.4159 au 
 T_jup = 3.382 
[ show covariance matrix ]

Ephemeris | Orbit Diagram | Orbital Elements | Mission Design | Physical Parameters | Discovery Circumstances ]

Physical Parameter Table
Parameter Symbol Value Units Sigma Reference Notes
absolute magnitude H 17.0   n/a MPO455943  

413499 (2005 QR35)          Discovered 2005-Aug-25 by NEAT at Palomar
Reference: Last Updated: 2014-11-10

Alternate Designations
 2005 QR35 = 2008 GD23 
Ephemeris | Orbit Diagram | Orbital Elements | Mission Design | Physical Parameters | Discovery Circumstances ]
ABOUT SSD CREDITS/AWARDS PRIVACY/COPYRIGHT GLOSSARY LINKS
FirstGov
(server date/time)  
NASA Home Page
Site Manager:   Ryan S. Park
Webmaster  Alan B. Chamberlin